This demonstration page uses our WeatherBlox Daily Observations layout. Learn more.

Left ArrowRight Arrow

39.01783, -85.05884

Hourly Observations for February 11, 2017

Temp ( °F °C ) Dew Point ( °F °C ) Humidity (%) Winds ( mph kmh ) Pressure ( in mb ) Visibility ( mi km ) Precip ( " mm )
12:52 am 00:52 Cloudy 53 11.7 28 -2.2 38 38 SW 15 24 29.90 1012 10 16 0.00 0.00
1:52 am 01:52 Cloudy 53 11.7 28 -2.2 38 38 SW 12 19 29.90 1013 10 16 0.00 0.00
2:52 am 02:52 Cloudy 53 11.7 30 -1.1 41 41 SW 12 19 29.90 1013 10 16 0.00 0.00
3:52 am 03:52 Cloudy 52 11.1 31 -0.6 45 45 SW 12 19 29.89 1012 10 16 0.00 0.00
4:52 am 04:52 Cloudy 51 10.6 33 0.6 50 50 SW 12 19 29.89 1012 10 16 0.00 0.00
5:52 am 05:52 Cloudy 51 10.6 35 1.7 54 54 SW 9 15 29.91 1013 10 16 0.00 0.00
6:52 am 06:52 Cloudy 51 10.6 36 2.2 56 56 SSW 9 15 29.92 1013 10 16 0.00 0.00
7:52 am 07:52 Mostly Cloudy 50 10 38 3.3 63 63 SSW 9 15 29.92 1013 10 16 0.00 0.00
8:52 am 08:52 Mostly Cloudy 52 11.1 40 4.4 64 64 SSW 10 17 29.94 1014 10 16 0.00 0.00
9:52 am 09:52 Mostly Cloudy 55 12.8 43 6.1 64 64 SW 12 19 29.96 1015 10 16 0.00 0.00
10:52 am 10:52 Mostly Cloudy 59 15 47 8.3 64 64 SW 13 20 29.94 1014 10 16 0.00 0.00
11:52 am 11:52 Mostly Cloudy 62 16.7 50 10 65 65 W 16 26 29.96 1015 10 16 0.00 0.00
12:52 pm 12:52 Mostly Cloudy 64 17.8 51 10.6 63 63 WSW 10 17 29.93 1014 10 16 0.00 0.00
1:52 pm 13:52 Cloudy 64 17.8 52 11.1 65 65 SW 12 19 29.91 1013 10 16 0.00 0.00
2:52 pm 14:52 Cloudy 63 17.2 53 11.7 70 70 SSW 8 13 29.91 1013 9 14 0.00 0.00
3:07 pm 15:07 Cloudy 63 17.2 53 11.7 70 70 SW 10 17 29.88 1012 9 14 0.00 0.00
3:52 pm 15:52 Cloudy 63 17.2 53 11.7 70 70 SSW 8 13 29.91 1013 9 14 0.00 0.00
4:52 pm 16:52 Cloudy 63 17.2 53 11.7 70 70 S 6 9 29.90 1012 10 16 0.00 0.00
5:52 pm 17:52 Cloudy 62 16.7 52 11.1 70 70 S 10 17 29.89 1012 10 16 0.00 0.00
6:21 pm 18:21 Cloudy 61 16.1 53 11.7 75 75 S 12 19 29.91 1013 10 16 0.00 0.00
6:52 pm 18:52 Cloudy 60 15.6 53 11.7 78 78 SSW 9 15 29.90 1013 10 16 0.00 0.00
7:25 pm 19:25 Cloudy 60 15.6 55 12.8 84 84 S 9 15 29.91 1013 8 13 0.00 0.03
7:52 pm 19:52 Cloudy 59 15 55 12.8 87 87 S 7 11 29.91 1013 8 13 0.00 0.03
8:52 pm 20:52 Cloudy 59 15 55 12.8 87 87 S 12 19 29.90 1012 8 13 0.00 0.00
9:24 pm 21:24 Cloudy with Mist and Fog 57 14 57 14 100 100 S 9 15 29.91 1013 5 8 0.00 0.00
9:52 pm 21:52 Cloudy with Mist and Fog 58 14.4 57 13.9 97 97 S 8 13 29.88 1012 5 8 0.01 0.25
10:52 pm 22:52 Cloudy with Heavy Rain 58 14.4 57 13.9 97 97 S 8 13 29.85 1011 3 5 0.03 0.76
11:06 pm 23:06 Cloudy with Rain 58 14.4 58 14.4 100 100 S 8 13 29.85 1011 4 6 0.02 0.51
11:32 pm 23:32 Cloudy with Light Rain 57 14 57 14 100 100 S 12 19 29.83 1010 4 6 0.00 0.00
11:52 pm 23:52 Cloudy with Light Rain 59 15 58 14.4 96 96 S 10 17 29.82 1010 5 8 0.05 1.27

Powered by AerisWeather